Location: Chippewa Lake
(41.0698°N, 81.9010°W)
Time: 18:17:29
(UTC+00:00)

Spot 2 Rocket - Pass Details

Date: 30 September 2021
Orbit: 757 x 771 km, 98.5° (Epoch: 17 October)

Event Time Altitude Azimuth Distance (km) Brightness Sun altitude
Exits shadow 02:08:50 13° 11° (N) 2,104 5.9 -33.0°
Drops below altitude 10° 02:09:25 10° 7° (N) 2,297 6.2 -33.1°
Sets 02:11:56 0° 357° (N) 3,228 7.1 -33.5°
